Overview Statistics Trail Chart Weather Telemetry Raw packets
 

This is the latest recevied weather packets stored in our database for station/object KB1RMA-4. If no packets are shown the sender has not sent any weather packets the latest 10 day(s).

<< 103 104 105 106 107 108 109 >>
Time Temp. Humidity Pressure Rain* Wind** Luminosity Snow
1787857345 27.78° C 58% 1016.3 hPa 0 mm - 190 W/m² -
1787857043 27.78° C 57% 1016.5 hPa 0 mm - 114 W/m² -
1787856738 28.33° C 57% 1016.2 hPa 0 mm - 231 W/m² -
1787856432 28.33° C 57% 1016.4 hPa 0 mm - 314 W/m² -
1787856129 28.33° C 56% 1016.3 hPa 0 mm - 261 W/m² -
1787855823 28.89° C 56% 1016.3 hPa 0 mm - 233 W/m² -
1787855518 28.89° C 56% 1016.3 hPa 0 mm - 336 W/m² -
1787855213 28.89° C 57% 1016.3 hPa 0 mm - 403 W/m² -
1787854909 28.33° C 58% 1016.5 hPa 0 mm - 281 W/m² -
1787854608 28.33° C 58% 1016.5 hPa 0 mm - 359 W/m² -
1787854303 28.89° C 58% 1016.5 hPa 0 mm - 219 W/m² -
1787853999 28.33° C 58% 1016.7 hPa 0 mm - 382 W/m² -
1787853698 28.33° C 58% 1016.6 hPa 0 mm - 230 W/m² -
1787853392 28.33° C 58% 1016.8 hPa 0 mm - 217 W/m² -
1787853092 27.78° C 59% 1016.7 hPa 0 mm - 415 W/m² -
1787852786 27.78° C 60% 1016.6 hPa 0 mm - 314 W/m² -
1787852492 27.78° C 60% 1016.5 hPa 0 mm - 136 W/m² -
1787852185 28.33° C 58% 1016.9 hPa 0 mm - 186 W/m² -
1787851880 28.33° C 58% 1016.7 hPa 0 mm - 532 W/m² -
1787851579 28.33° C 60% 1016.7 hPa 0 mm - 256 W/m² -
1787851274 28.33° C 59% 1016.9 hPa 0 mm - 393 W/m² -
1787850969 28.89° C 58% 1016.9 hPa 0 mm - 405 W/m² -
1787850666 29.44° C 58% 1017 hPa 0 mm - 261 W/m² -
1787850361 29.44° C 53% 1017 hPa 0 mm - 544 W/m² -
1787850050 29.44° C 56% 1017.2 hPa 0 mm - 484 W/m² -

* Rain latest hour (hover to see other rain measurements)
** Current wind speed in m/s (hover to see current wind gust speed)